Year,Month,Day,Hour,Minute,Value (Times are PST for temperature in C)
2013,04,23,00,00,3.50
2013,04,23,00,01,3.40
2013,04,23,00,02,3.40
2013,04,23,00,03,3.40
2013,04,23,00,04,3.40
2013,04,23,00,05,3.40
2013,04,23,00,06,3.40
2013,04,23,00,07,3.30
2013,04,23,00,08,3.30
2013,04,23,00,09,3.40
2013,04,23,00,10,3.30
2013,04,23,00,11,3.30
2013,04,23,00,12,3.30
2013,04,23,00,13,3.30
2013,04,23,00,14,3.30
2013,04,23,00,15,3.30
2013,04,23,00,16,3.30
2013,04,23,00,17,3.30
2013,04,23,00,18,3.30
2013,04,23,00,19,3.30
2013,04,23,00,20,3.30
2013,04,23,00,21,3.30
2013,04,23,00,22,3.30
2013,04,23,00,23,3.30
2013,04,23,00,24,3.30
2013,04,23,00,25,3.30
2013,04,23,00,26,3.30
2013,04,23,00,27,3.30
2013,04,23,00,28,3.30
2013,04,23,00,29,3.30
2013,04,23,00,30,3.30
2013,04,23,00,31,3.20
2013,04,23,00,32,3.20
2013,04,23,00,33,3.20
2013,04,23,00,34,3.20
2013,04,23,00,35,3.20
2013,04,23,00,36,3.20
2013,04,23,00,37,3.20
2013,04,23,00,38,3.20
2013,04,23,00,39,3.20
2013,04,23,00,40,3.20
2013,04,23,00,41,3.20
2013,04,23,00,42,3.20
2013,04,23,00,43,3.20
2013,04,23,00,44,3.10
2013,04,23,00,45,3.10
2013,04,23,00,46,3.10
2013,04,23,00,47,3.10
2013,04,23,00,48,3.10
2013,04,23,00,49,3.10
2013,04,23,00,50,3.10
2013,04,23,00,51,3.10
2013,04,23,00,52,3.10
2013,04,23,00,53,3.10
2013,04,23,00,54,3.10
2013,04,23,00,55,3.10
2013,04,23,00,56,3.00
2013,04,23,00,57,3.00
2013,04,23,00,58,3.00
2013,04,23,00,59,3.00
2013,04,23,01,00,3.00
2013,04,23,01,01,3.00
2013,04,23,01,02,3.00
2013,04,23,01,03,3.00
2013,04,23,01,04,2.90
2013,04,23,01,05,2.90
2013,04,23,01,06,2.90
2013,04,23,01,07,2.90
2013,04,23,01,08,2.90
2013,04,23,01,09,2.90
2013,04,23,01,10,2.90
2013,04,23,01,11,2.90
2013,04,23,01,12,2.90
2013,04,23,01,13,2.80
2013,04,23,01,14,2.80
2013,04,23,01,15,2.80
2013,04,23,01,16,2.80
2013,04,23,01,17,2.80
2013,04,23,01,18,2.80
2013,04,23,01,19,2.80
2013,04,23,01,20,2.80
2013,04,23,01,21,2.80
2013,04,23,01,22,2.80
2013,04,23,01,23,2.80
2013,04,23,01,24,2.80
2013,04,23,01,25,2.80
2013,04,23,01,26,2.80
2013,04,23,01,27,2.80
2013,04,23,01,28,2.80
2013,04,23,01,29,2.80
2013,04,23,01,30,2.80
2013,04,23,01,31,2.80
2013,04,23,01,32,2.80
2013,04,23,01,33,2.80
2013,04,23,01,34,2.80
2013,04,23,01,35,2.80
2013,04,23,01,36,2.80
2013,04,23,01,37,2.80
2013,04,23,01,38,2.80
2013,04,23,01,39,2.70
2013,04,23,01,40,2.70
2013,04,23,01,41,2.70
2013,04,23,01,42,2.70
2013,04,23,01,43,2.70
2013,04,23,01,44,2.70
2013,04,23,01,45,2.70
2013,04,23,01,46,2.70
2013,04,23,01,47,2.70
2013,04,23,01,48,2.70
2013,04,23,01,49,2.70
2013,04,23,01,50,2.70
2013,04,23,01,51,2.70
2013,04,23,01,52,2.60
2013,04,23,01,53,2.60
2013,04,23,01,54,2.60
2013,04,23,01,55,2.60
2013,04,23,01,56,2.60
2013,04,23,01,57,2.60
2013,04,23,01,58,2.60
2013,04,23,01,59,2.60
2013,04,23,02,00,2.60
2013,04,23,02,01,2.60
2013,04,23,02,02,2.60
2013,04,23,02,03,2.60
2013,04,23,02,04,2.60
2013,04,23,02,05,2.60
2013,04,23,02,06,2.60
2013,04,23,02,07,2.60
2013,04,23,02,08,2.60
2013,04,23,02,09,2.50
2013,04,23,02,10,2.50
2013,04,23,02,11,2.60
2013,04,23,02,12,2.50
2013,04,23,02,13,2.60
2013,04,23,02,14,2.60
2013,04,23,02,15,2.60
2013,04,23,02,16,2.60
2013,04,23,02,17,2.50
2013,04,23,02,18,2.50
2013,04,23,02,19,2.50
2013,04,23,02,20,2.50
2013,04,23,02,21,2.50
2013,04,23,02,22,2.50
2013,04,23,02,23,2.50
2013,04,23,02,24,2.40
2013,04,23,02,25,2.40
2013,04,23,02,26,2.40
2013,04,23,02,27,2.40
2013,04,23,02,28,2.40
2013,04,23,02,29,2.40
2013,04,23,02,30,2.40
2013,04,23,02,31,2.40
2013,04,23,02,32,2.40
2013,04,23,02,33,2.40
2013,04,23,02,34,2.40
2013,04,23,02,35,2.40
2013,04,23,02,36,2.40
2013,04,23,02,37,2.40
2013,04,23,02,38,2.40
2013,04,23,02,39,2.40
2013,04,23,02,40,2.40
2013,04,23,02,41,2.40
2013,04,23,02,42,2.40
2013,04,23,02,43,2.40
2013,04,23,02,44,2.40
2013,04,23,02,45,2.40
2013,04,23,02,46,2.40
2013,04,23,02,47,2.40
2013,04,23,02,48,2.40
2013,04,23,02,49,2.40
2013,04,23,02,50,2.40
2013,04,23,02,51,2.40
2013,04,23,02,52,2.40
2013,04,23,02,53,2.40
2013,04,23,02,54,2.40
2013,04,23,02,55,2.40
2013,04,23,02,56,2.40
2013,04,23,02,57,2.40
2013,04,23,02,58,2.40
2013,04,23,02,59,2.40
2013,04,23,03,00,2.30
2013,04,23,03,01,2.40
2013,04,23,03,02,2.30
2013,04,23,03,06,2.30
2013,04,23,03,07,2.30
2013,04,23,03,08,2.30
2013,04,23,03,09,2.30
2013,04,23,03,10,2.30
2013,04,23,03,11,2.20
2013,04,23,03,12,2.20
2013,04,23,03,13,2.20
2013,04,23,03,14,2.20
2013,04,23,03,15,2.20
2013,04,23,03,16,2.20
2013,04,23,03,17,2.20
2013,04,23,03,18,2.10
2013,04,23,03,19,2.10
2013,04,23,03,20,2.10
2013,04,23,03,21,2.10
2013,04,23,03,22,2.10
2013,04,23,03,23,2.10
2013,04,23,03,24,2.10
2013,04,23,03,25,2.10
2013,04,23,03,26,2.10
2013,04,23,03,27,2.00
2013,04,23,03,28,2.00
2013,04,23,03,29,2.00
2013,04,23,03,30,2.00
2013,04,23,03,31,2.00
2013,04,23,03,32,2.00
2013,04,23,03,33,2.00
2013,04,23,03,34,2.00
2013,04,23,03,35,2.10
2013,04,23,03,36,2.10
2013,04,23,03,37,2.10
2013,04,23,03,38,2.10
2013,04,23,03,39,2.10
2013,04,23,03,40,2.10
2013,04,23,03,41,2.10
2013,04,23,03,42,2.10
2013,04,23,03,43,2.10
2013,04,23,03,44,2.10
2013,04,23,03,45,2.10
2013,04,23,03,46,2.20
2013,04,23,03,47,2.20
2013,04,23,03,48,2.20
2013,04,23,03,49,2.20
2013,04,23,03,50,2.20
2013,04,23,03,51,2.20
2013,04,23,03,52,2.20
2013,04,23,03,53,2.20
2013,04,23,03,54,2.20
2013,04,23,03,55,2.20
2013,04,23,03,56,2.20
2013,04,23,03,57,2.20
2013,04,23,03,58,2.30
2013,04,23,03,59,2.30
2013,04,23,04,00,2.30
2013,04,23,04,01,2.30
2013,04,23,04,02,2.30
2013,04,23,04,03,2.30
2013,04,23,04,04,2.30
2013,04,23,04,05,2.30
2013,04,23,04,06,2.30
2013,04,23,04,07,2.30
2013,04,23,04,08,2.30
2013,04,23,04,09,2.40
2013,04,23,04,10,2.40
2013,04,23,04,11,2.40
2013,04,23,04,12,2.40
2013,04,23,04,13,2.40
2013,04,23,04,14,2.40
2013,04,23,04,15,2.40
2013,04,23,04,16,2.30
2013,04,23,04,17,2.30
2013,04,23,04,18,2.30
2013,04,23,04,19,2.30
2013,04,23,04,20,2.30
2013,04,23,04,21,2.30
2013,04,23,04,22,2.30
2013,04,23,04,23,2.30
2013,04,23,04,24,2.30
2013,04,23,04,25,2.20
2013,04,23,04,26,2.20
2013,04,23,04,27,2.20
2013,04,23,04,28,2.20
2013,04,23,04,29,2.20
2013,04,23,04,30,2.20
2013,04,23,04,31,2.30
2013,04,23,04,32,2.30
2013,04,23,04,33,2.30
2013,04,23,04,34,2.30
2013,04,23,04,35,2.30
2013,04,23,04,36,2.30
2013,04,23,04,37,2.30
2013,04,23,04,38,2.30
2013,04,23,04,39,2.30
2013,04,23,04,40,2.30
2013,04,23,04,41,2.30
2013,04,23,04,42,2.30
2013,04,23,04,43,2.30
2013,04,23,04,44,2.30
2013,04,23,04,45,2.30
2013,04,23,04,46,2.30
2013,04,23,04,47,2.30
2013,04,23,04,48,2.30
2013,04,23,04,49,2.30
2013,04,23,04,50,2.30
2013,04,23,04,51,2.30
2013,04,23,04,52,2.30
2013,04,23,04,53,2.40
2013,04,23,04,54,2.40
2013,04,23,04,55,2.40
2013,04,23,04,56,2.40
2013,04,23,04,57,2.40
2013,04,23,04,58,2.30
2013,04,23,04,59,2.30
2013,04,23,05,00,2.30
2013,04,23,05,01,2.30
2013,04,23,05,02,2.30
2013,04,23,05,03,2.30
2013,04,23,05,04,2.30
2013,04,23,05,05,2.30
2013,04,23,05,06,2.30
2013,04,23,05,07,2.30
2013,04,23,05,08,2.30
2013,04,23,05,09,2.30
2013,04,23,05,10,2.30
2013,04,23,05,11,2.30
2013,04,23,05,12,2.30
2013,04,23,05,13,2.30
2013,04,23,05,14,2.30
2013,04,23,05,15,2.30
2013,04,23,05,16,2.30
2013,04,23,05,17,2.30
2013,04,23,05,18,2.30
2013,04,23,05,19,2.30
2013,04,23,05,20,2.30
2013,04,23,05,21,2.30
2013,04,23,05,22,2.30
2013,04,23,05,23,2.30
2013,04,23,05,24,2.30
2013,04,23,05,25,2.30
2013,04,23,05,26,2.30
2013,04,23,05,27,2.30
2013,04,23,05,28,2.30
2013,04,23,05,29,2.30
2013,04,23,05,30,2.30
2013,04,23,05,31,2.30
2013,04,23,05,32,2.20
2013,04,23,05,33,2.20
2013,04,23,05,34,2.20
2013,04,23,05,35,2.20
2013,04,23,05,36,2.20
2013,04,23,05,37,2.20
2013,04,23,05,38,2.20
2013,04,23,05,39,2.20
2013,04,23,05,40,2.20
2013,04,23,05,41,2.20
2013,04,23,05,42,2.20
2013,04,23,05,43,2.20
2013,04,23,05,44,2.20
2013,04,23,05,45,2.20
2013,04,23,05,46,2.20
2013,04,23,05,47,2.30
2013,04,23,05,48,2.30
2013,04,23,05,49,2.30
2013,04,23,05,50,2.30
2013,04,23,05,51,2.30
2013,04,23,05,52,2.30
2013,04,23,05,53,2.30
2013,04,23,05,54,2.30
2013,04,23,05,55,2.30
2013,04,23,05,56,2.30
2013,04,23,05,57,2.30
2013,04,23,05,58,2.20
2013,04,23,05,59,2.20
2013,04,23,06,00,2.20
2013,04,23,06,01,2.20
2013,04,23,06,02,2.20
2013,04,23,06,03,2.20
2013,04,23,06,04,2.20
2013,04,23,06,05,2.20
2013,04,23,06,06,2.20
2013,04,23,06,07,2.20
2013,04,23,06,08,2.20
2013,04,23,06,09,2.30
2013,04,23,06,10,2.30
2013,04,23,06,11,2.30
2013,04,23,06,12,2.30
2013,04,23,06,13,2.40
2013,04,23,06,14,2.40
2013,04,23,06,15,2.40
2013,04,23,06,16,2.40
2013,04,23,06,17,2.50
2013,04,23,06,18,2.50
2013,04,23,06,19,2.50
2013,04,23,06,20,2.50
2013,04,23,06,21,2.60
2013,04,23,06,22,2.60
2013,04,23,06,23,2.60
2013,04,23,06,24,2.60
2013,04,23,06,25,2.60
2013,04,23,06,26,2.70
2013,04,23,06,27,2.70
2013,04,23,06,28,2.70
2013,04,23,06,29,2.70
2013,04,23,06,30,2.70
2013,04,23,06,31,2.70
2013,04,23,06,32,2.70
2013,04,23,06,33,2.70
2013,04,23,06,34,2.80
2013,04,23,06,35,2.80
2013,04,23,06,36,2.80
2013,04,23,06,37,2.80
2013,04,23,06,38,2.80
2013,04,23,06,39,2.80
2013,04,23,06,40,2.90
2013,04,23,06,41,2.90
2013,04,23,06,42,2.90
2013,04,23,06,43,2.90
2013,04,23,06,44,2.90
2013,04,23,06,45,2.90
2013,04,23,06,46,2.90
2013,04,23,06,47,3.00
2013,04,23,06,48,3.00
2013,04,23,06,49,3.00
2013,04,23,06,50,3.00
2013,04,23,06,51,3.10
2013,04,23,06,52,3.10
2013,04,23,06,53,3.10
2013,04,23,06,54,3.10
2013,04,23,06,55,3.10
2013,04,23,06,56,3.10
2013,04,23,06,57,3.10
2013,04,23,06,58,3.10
2013,04,23,06,59,3.20
2013,04,23,07,00,3.20
2013,04,23,07,01,3.20
2013,04,23,07,02,3.20
2013,04,23,07,03,3.30
2013,04,23,07,04,3.30
2013,04,23,07,05,3.30
2013,04,23,07,06,3.40
2013,04,23,07,07,3.40
2013,04,23,07,08,3.40
2013,04,23,07,09,3.40
2013,04,23,07,10,3.40
2013,04,23,07,11,3.40
2013,04,23,07,12,3.40
2013,04,23,07,13,3.50
2013,04,23,07,14,3.50
2013,04,23,07,15,3.50
2013,04,23,07,16,3.60
2013,04,23,07,17,3.60
2013,04,23,07,18,3.60
2013,04,23,07,19,3.70
2013,04,23,07,20,3.70
2013,04,23,07,21,3.70
2013,04,23,07,22,3.80
2013,04,23,07,23,3.80
2013,04,23,07,24,3.80
2013,04,23,07,25,3.80
2013,04,23,07,26,3.90
2013,04,23,07,27,3.90
2013,04,23,07,28,3.90
2013,04,23,07,29,3.90
2013,04,23,07,30,4.00
2013,04,23,07,31,4.00
2013,04,23,07,32,4.00
2013,04,23,07,33,4.10
2013,04,23,07,34,4.10
2013,04,23,07,35,4.10
2013,04,23,07,36,4.20
2013,04,23,07,37,4.20
2013,04,23,07,38,4.20
2013,04,23,07,39,4.30
2013,04,23,07,40,4.30
2013,04,23,07,41,4.30
2013,04,23,07,42,4.40
2013,04,23,07,43,4.40
2013,04,23,07,44,4.40
2013,04,23,07,45,4.50
2013,04,23,07,46,4.60
2013,04,23,07,47,4.60
2013,04,23,07,48,4.70
2013,04,23,07,49,4.70
2013,04,23,07,50,4.70
2013,04,23,07,51,4.80
2013,04,23,07,52,4.80
2013,04,23,07,53,4.90
2013,04,23,07,54,4.90
2013,04,23,07,55,5.00
2013,04,23,07,56,5.00
2013,04,23,07,57,5.10
2013,04,23,07,58,5.10
2013,04,23,07,59,5.20
2013,04,23,08,00,5.20
2013,04,23,08,01,5.30
2013,04,23,08,02,5.30
2013,04,23,08,03,5.40
2013,04,23,08,04,5.40
2013,04,23,08,05,5.50
2013,04,23,08,06,5.50
2013,04,23,08,07,5.60
2013,04,23,08,08,5.70
2013,04,23,08,09,5.70
2013,04,23,08,10,5.80
2013,04,23,08,11,5.80
2013,04,23,08,12,5.90
2013,04,23,08,13,5.90
2013,04,23,08,14,6.00
2013,04,23,08,15,6.10
2013,04,23,08,16,6.10
2013,04,23,08,17,6.20
2013,04,23,08,18,6.30
2013,04,23,08,19,6.30
2013,04,23,08,20,6.40
2013,04,23,08,21,6.50
2013,04,23,08,22,6.50
2013,04,23,08,23,6.60
2013,04,23,08,24,6.70
2013,04,23,08,25,6.80
2013,04,23,08,26,6.80
2013,04,23,08,27,6.90
2013,04,23,08,28,7.00
2013,04,23,08,29,7.10
2013,04,23,08,30,7.20
2013,04,23,08,31,7.30
2013,04,23,08,32,7.40
2013,04,23,08,33,7.50
2013,04,23,08,34,7.50
2013,04,23,08,35,7.60
2013,04,23,08,36,7.70
2013,04,23,08,37,7.80
2013,04,23,08,38,7.80
2013,04,23,08,39,7.90
2013,04,23,08,40,8.00
2013,04,23,08,41,8.10
2013,04,23,08,42,8.10
2013,04,23,08,43,8.20
2013,04,23,08,44,8.30
2013,04,23,08,45,8.30
2013,04,23,08,46,8.30
2013,04,23,08,47,8.40
2013,04,23,08,48,8.40
2013,04,23,08,49,8.40
2013,04,23,08,50,8.50
2013,04,23,08,51,8.50
2013,04,23,08,52,8.60
2013,04,23,08,53,8.60
2013,04,23,08,54,8.60
2013,04,23,08,55,8.60
2013,04,23,08,56,8.70
2013,04,23,08,57,8.70
2013,04,23,08,58,8.70
2013,04,23,08,59,8.80
2013,04,23,09,00,8.80
2013,04,23,09,01,8.80
2013,04,23,09,02,8.80
2013,04,23,09,03,8.80
2013,04,23,09,04,8.80
2013,04,23,09,05,8.90
2013,04,23,09,06,8.90
2013,04,23,09,07,8.90
2013,04,23,09,08,9.00
2013,04,23,09,09,9.00
2013,04,23,09,10,9.00
2013,04,23,09,11,9.10
2013,04,23,09,12,9.10
2013,04,23,09,13,9.10
2013,04,23,09,14,9.20
2013,04,23,09,15,9.20
2013,04,23,09,16,9.20
2013,04,23,09,17,9.30
2013,04,23,09,18,9.30
2013,04,23,09,19,9.40
2013,04,23,09,20,9.40
2013,04,23,09,21,9.40
2013,04,23,09,22,9.50
2013,04,23,09,23,9.50
2013,04,23,09,24,9.60
2013,04,23,09,25,9.60
2013,04,23,09,26,9.60
2013,04,23,09,27,9.70
2013,04,23,09,28,9.70
2013,04,23,09,29,9.70
2013,04,23,09,30,9.80
2013,04,23,09,31,9.80
2013,04,23,09,32,9.80
2013,04,23,09,33,9.90
2013,04,23,09,34,9.90
2013,04,23,09,35,9.90
2013,04,23,09,36,9.90
2013,04,23,09,37,10.00
2013,04,23,09,38,10.00
2013,04,23,09,39,10.10
2013,04,23,09,40,10.10
2013,04,23,09,41,10.20
2013,04,23,09,42,10.20
2013,04,23,09,43,10.20
2013,04,23,09,44,10.30
2013,04,23,09,45,10.30
2013,04,23,09,46,10.30
2013,04,23,09,47,10.40
2013,04,23,09,48,10.40
2013,04,23,09,49,10.40
2013,04,23,09,50,10.40
2013,04,23,09,51,10.40
2013,04,23,09,52,10.50
2013,04,23,09,53,10.50
2013,04,23,09,54,10.60
2013,04,23,09,55,10.60
2013,04,23,09,56,10.60
2013,04,23,09,57,10.60
2013,04,23,09,58,10.60
2013,04,23,09,59,10.60
2013,04,23,10,00,10.60
2013,04,23,10,01,10.60
2013,04,23,10,02,10.60
2013,04,23,10,03,10.60
2013,04,23,10,04,10.60
2013,04,23,10,05,10.60
2013,04,23,10,06,10.60
2013,04,23,10,07,10.60
2013,04,23,10,08,10.60
2013,04,23,10,09,10.70
2013,04,23,10,10,10.70
2013,04,23,10,11,10.70
2013,04,23,10,12,10.70
2013,04,23,10,13,10.70
2013,04,23,10,14,10.60
2013,04,23,10,15,10.60
2013,04,23,10,16,10.60
2013,04,23,10,17,10.60
2013,04,23,10,18,10.60
2013,04,23,10,19,10.60
2013,04,23,10,20,10.70
2013,04,23,10,21,10.70
2013,04,23,10,22,10.70
2013,04,23,10,23,10.80
2013,04,23,10,24,10.80
2013,04,23,10,25,10.80
2013,04,23,10,26,10.90
2013,04,23,10,27,10.90
2013,04,23,10,28,11.00
2013,04,23,10,29,11.00
2013,04,23,10,30,11.10
2013,04,23,10,31,11.20
2013,04,23,10,32,11.20
2013,04,23,10,33,11.30
2013,04,23,10,34,11.30
2013,04,23,10,35,11.40
2013,04,23,10,36,11.40
2013,04,23,10,37,11.50
2013,04,23,10,38,11.50
2013,04,23,10,39,11.60
2013,04,23,10,40,11.60
2013,04,23,10,41,11.60
2013,04,23,10,42,11.60
2013,04,23,10,43,11.70
2013,04,23,10,44,11.70
2013,04,23,10,45,11.70
2013,04,23,10,46,11.80
2013,04,23,10,47,11.80
2013,04,23,10,48,11.80
2013,04,23,10,49,11.70
2013,04,23,10,50,11.70
2013,04,23,10,51,11.70
2013,04,23,10,52,11.70
2013,04,23,10,53,11.80
2013,04,23,10,54,11.80
2013,04,23,10,55,11.80
2013,04,23,10,56,11.80
2013,04,23,10,57,11.90
2013,04,23,10,58,12.00
2013,04,23,10,59,12.10
2013,04,23,11,00,12.20
2013,04,23,11,01,12.20
2013,04,23,11,02,12.30
2013,04,23,11,03,12.30
2013,04,23,11,04,12.40
2013,04,23,11,05,12.40
2013,04,23,11,06,12.50
2013,04,23,11,07,12.50
2013,04,23,11,08,12.60
2013,04,23,11,09,12.60
2013,04,23,11,10,12.70
2013,04,23,11,11,12.70
2013,04,23,11,12,12.60
2013,04,23,11,13,12.60
2013,04,23,11,14,12.60
2013,04,23,11,15,12.60
2013,04,23,11,16,12.70
2013,04,23,11,17,12.80
2013,04,23,11,18,12.80
2013,04,23,11,19,12.90
2013,04,23,11,20,12.90
2013,04,23,11,21,13.00
2013,04,23,11,22,13.00
2013,04,23,11,23,13.10
2013,04,23,11,24,13.20
2013,04,23,11,25,13.30
2013,04,23,11,26,13.30
2013,04,23,11,27,13.40
2013,04,23,11,28,13.40
2013,04,23,11,29,13.40
2013,04,23,11,30,13.40
2013,04,23,11,31,13.40
2013,04,23,11,32,13.50
2013,04,23,11,33,13.50
2013,04,23,11,34,13.60
2013,04,23,11,35,13.70
2013,04,23,11,36,13.80
2013,04,23,11,37,13.90
2013,04,23,11,38,14.00
2013,04,23,11,39,14.10
2013,04,23,11,40,14.20
2013,04,23,11,41,14.20
2013,04,23,11,42,14.20
2013,04,23,11,43,14.30
2013,04,23,11,44,14.30
2013,04,23,11,45,14.40
2013,04,23,11,46,14.40
2013,04,23,11,47,14.40
2013,04,23,11,48,14.40
2013,04,23,11,49,14.40
2013,04,23,11,50,14.40
2013,04,23,11,51,14.30
2013,04,23,11,52,14.30
2013,04,23,11,53,14.30
2013,04,23,11,54,14.30
2013,04,23,11,55,14.40
2013,04,23,11,56,14.40
2013,04,23,11,57,14.50
2013,04,23,11,58,14.50
2013,04,23,11,59,14.60
2013,04,23,12,00,14.60
2013,04,23,12,01,14.60
2013,04,23,12,02,14.50
2013,04,23,12,03,14.40
2013,04,23,12,04,14.30
2013,04,23,12,05,14.20
2013,04,23,12,06,14.10
2013,04,23,12,07,14.00
2013,04,23,12,08,14.00
2013,04,23,12,09,13.90
2013,04,23,12,10,13.90
2013,04,23,12,11,13.90
2013,04,23,12,12,13.90
2013,04,23,12,13,13.90
2013,04,23,12,14,13.90
2013,04,23,12,15,13.90
2013,04,23,12,16,13.80
2013,04,23,12,17,13.80
2013,04,23,12,18,13.80
2013,04,23,12,19,13.70
2013,04,23,12,20,13.70
2013,04,23,12,21,13.80
2013,04,23,12,22,13.80
2013,04,23,12,23,13.80
2013,04,23,12,24,13.80
2013,04,23,12,25,13.70
2013,04,23,12,26,13.70
2013,04,23,12,27,13.70
2013,04,23,12,28,13.60
2013,04,23,12,29,13.70
2013,04,23,12,30,13.70
2013,04,23,12,31,13.70
2013,04,23,12,32,13.60
2013,04,23,12,33,13.50
2013,04,23,12,34,13.50
2013,04,23,12,35,13.60
2013,04,23,12,36,13.60
2013,04,23,12,37,13.70
2013,04,23,12,38,13.80
2013,04,23,12,39,13.90
2013,04,23,12,40,14.00
2013,04,23,12,41,14.10
2013,04,23,12,42,14.20
2013,04,23,12,43,14.30
2013,04,23,12,44,14.30
2013,04,23,12,45,14.40
2013,04,23,12,46,14.50
2013,04,23,12,47,14.50
2013,04,23,12,48,14.60
2013,04,23,12,49,14.60
2013,04,23,12,50,14.60
2013,04,23,12,51,14.70
2013,04,23,12,52,14.80
2013,04,23,12,53,14.80
2013,04,23,12,54,14.80
2013,04,23,12,55,14.90
2013,04,23,12,56,14.90
2013,04,23,12,57,14.90
2013,04,23,12,58,14.90
2013,04,23,12,59,14.80
2013,04,23,13,00,14.70
2013,04,23,13,01,14.50
2013,04,23,13,02,14.40
2013,04,23,13,03,14.40
2013,04,23,13,04,14.40
2013,04,23,13,05,14.50
2013,04,23,13,06,14.50
2013,04,23,13,07,14.60
2013,04,23,13,08,14.70
2013,04,23,13,09,14.80
2013,04,23,13,10,14.90
2013,04,23,13,11,14.90
2013,04,23,13,12,15.00
2013,04,23,13,13,15.10
2013,04,23,13,14,15.20
2013,04,23,13,15,15.20
2013,04,23,13,16,15.30
2013,04,23,13,17,15.30
2013,04,23,13,18,15.30
2013,04,23,13,19,15.30
2013,04,23,13,20,15.30
2013,04,23,13,21,15.30
2013,04,23,13,22,15.30
2013,04,23,13,23,15.30
2013,04,23,13,24,15.40
2013,04,23,13,25,15.50
2013,04,23,13,26,15.50
2013,04,23,13,27,15.60
2013,04,23,13,28,15.60
2013,04,23,13,29,15.60
2013,04,23,13,30,15.60
2013,04,23,13,31,15.60
2013,04,23,13,32,15.70
2013,04,23,13,33,15.70
2013,04,23,13,34,15.60
2013,04,23,13,35,15.60
2013,04,23,13,36,15.50
2013,04,23,13,37,15.40
2013,04,23,13,38,15.30
2013,04,23,13,39,15.20
2013,04,23,13,40,15.20
2013,04,23,13,41,15.20
2013,04,23,13,42,15.20
2013,04,23,13,43,15.20
2013,04,23,13,44,15.20
2013,04,23,13,45,15.20
2013,04,23,13,46,15.30
2013,04,23,13,47,15.30
2013,04,23,13,48,15.40
2013,04,23,13,49,15.50
2013,04,23,13,50,15.60
2013,04,23,13,51,15.60
2013,04,23,13,52,15.50
2013,04,23,13,53,15.50
2013,04,23,13,54,15.50
2013,04,23,13,55,15.60
2013,04,23,13,56,15.60
2013,04,23,13,57,15.70
2013,04,23,13,58,15.80
2013,04,23,13,59,15.80
2013,04,23,14,00,15.80
2013,04,23,14,01,15.70
2013,04,23,14,02,15.70
2013,04,23,14,03,15.80
2013,04,23,14,04,15.80
2013,04,23,14,05,15.90
2013,04,23,14,06,16.00
2013,04,23,14,07,16.10
2013,04,23,14,08,16.20
2013,04,23,14,09,16.30
2013,04,23,14,10,16.30
2013,04,23,14,11,16.40
2013,04,23,14,12,16.40
2013,04,23,14,13,16.40
2013,04,23,14,14,16.40
2013,04,23,14,15,16.40
2013,04,23,14,16,16.40
2013,04,23,14,17,16.30
2013,04,23,14,18,16.20
2013,04,23,14,19,16.20
2013,04,23,14,20,16.10
2013,04,23,14,21,16.10
2013,04,23,14,22,16.10
2013,04,23,14,23,16.10
2013,04,23,14,24,16.10
2013,04,23,14,25,16.00
2013,04,23,14,26,16.00
2013,04,23,14,27,16.10
2013,04,23,14,28,16.20
2013,04,23,14,29,16.20
2013,04,23,14,30,16.30
2013,04,23,14,31,16.30
2013,04,23,14,32,16.30
2013,04,23,14,33,16.40
2013,04,23,14,34,16.40
2013,04,23,14,35,16.50
2013,04,23,14,36,16.50
2013,04,23,14,37,16.50
2013,04,23,14,38,16.60
2013,04,23,14,39,16.60
2013,04,23,14,40,16.60
2013,04,23,14,41,16.40
2013,04,23,14,42,16.30
2013,04,23,14,43,16.20
2013,04,23,14,44,16.10
2013,04,23,14,45,16.00
2013,04,23,14,46,16.10
2013,04,23,14,47,16.10
2013,04,23,14,48,16.00
2013,04,23,14,49,15.80
2013,04,23,14,50,15.70
2013,04,23,14,51,15.50
2013,04,23,14,52,15.40
2013,04,23,14,53,15.30
2013,04,23,14,54,15.30
2013,04,23,14,55,15.40
2013,04,23,14,56,15.50
2013,04,23,14,57,15.60
2013,04,23,14,58,15.70
2013,04,23,14,59,15.80
2013,04,23,15,00,15.90
2013,04,23,15,01,16.00
2013,04,23,15,02,16.00
2013,04,23,15,03,16.10
2013,04,23,15,04,16.10
2013,04,23,15,05,16.20
2013,04,23,15,06,16.20
2013,04,23,15,07,16.20
2013,04,23,15,08,16.20
2013,04,23,15,09,16.20
2013,04,23,15,10,16.20
2013,04,23,15,11,16.20
2013,04,23,15,12,16.20
2013,04,23,15,13,16.20
2013,04,23,15,14,16.20
2013,04,23,15,15,16.30
2013,04,23,15,16,16.30
2013,04,23,15,17,16.30
2013,04,23,15,18,16.30
2013,04,23,15,19,16.30
2013,04,23,15,20,16.30
2013,04,23,15,21,16.30
2013,04,23,15,22,16.30
2013,04,23,15,23,16.30
2013,04,23,15,24,16.40
2013,04,23,15,25,16.40
2013,04,23,15,26,16.40
2013,04,23,15,27,16.40
2013,04,23,15,28,16.40
2013,04,23,15,29,16.50
2013,04,23,15,30,16.60
2013,04,23,15,31,16.60
2013,04,23,15,32,16.60
2013,04,23,15,33,16.70
2013,04,23,15,34,16.70
2013,04,23,15,35,16.80
2013,04,23,15,36,16.90
2013,04,23,15,37,17.00
2013,04,23,15,38,17.10
2013,04,23,15,39,17.10
2013,04,23,15,40,17.20
2013,04,23,15,41,17.20
2013,04,23,15,42,17.20
2013,04,23,15,43,17.30
2013,04,23,15,44,17.30
2013,04,23,15,45,17.30
2013,04,23,15,46,17.30
2013,04,23,15,47,17.30
2013,04,23,15,48,17.30
2013,04,23,15,49,17.30
2013,04,23,15,50,17.30
2013,04,23,15,51,17.30
2013,04,23,15,52,17.30
2013,04,23,15,53,17.20
2013,04,23,15,54,17.10
2013,04,23,15,55,17.00
2013,04,23,15,56,16.90
2013,04,23,15,57,16.80
2013,04,23,15,58,16.70
2013,04,23,15,59,16.60
2013,04,23,16,00,16.50
2013,04,23,16,01,16.40
2013,04,23,16,02,16.30
2013,04,23,16,03,16.20
2013,04,23,16,04,16.00
2013,04,23,16,05,15.80
2013,04,23,16,06,15.70
2013,04,23,16,07,15.50
2013,04,23,16,08,15.40
2013,04,23,16,09,15.40
2013,04,23,16,10,15.30
2013,04,23,16,11,15.30
2013,04,23,16,12,15.20
2013,04,23,16,13,15.20
2013,04,23,16,14,15.20
2013,04,23,16,15,15.20
2013,04,23,16,16,15.30
2013,04,23,16,17,15.30
2013,04,23,16,18,15.30
2013,04,23,16,19,15.30
2013,04,23,16,20,15.40
2013,04,23,16,21,15.40
2013,04,23,16,22,15.50
2013,04,23,16,23,15.60
2013,04,23,16,24,15.70
2013,04,23,16,25,15.80
2013,04,23,16,26,15.90
2013,04,23,16,27,16.00
2013,04,23,16,28,16.10
2013,04,23,16,29,16.20
2013,04,23,16,30,16.30
2013,04,23,16,31,16.30
2013,04,23,16,32,16.20
2013,04,23,16,33,16.20
2013,04,23,16,34,16.10
2013,04,23,16,35,16.00
2013,04,23,16,36,16.00
2013,04,23,16,37,15.90
2013,04,23,16,38,15.80
2013,04,23,16,39,15.70
2013,04,23,16,40,15.70
2013,04,23,16,41,15.70
2013,04,23,16,42,15.70
2013,04,23,16,43,15.60
2013,04,23,16,44,15.60
2013,04,23,16,45,15.60
2013,04,23,16,46,15.60
2013,04,23,16,47,15.60
2013,04,23,16,48,15.50
2013,04,23,16,49,15.40
2013,04,23,16,50,15.50
2013,04,23,16,51,15.60
2013,04,23,16,52,15.60
2013,04,23,16,53,15.60
2013,04,23,16,54,15.60
2013,04,23,16,55,15.60
2013,04,23,16,56,15.60
2013,04,23,16,57,15.60
2013,04,23,16,58,15.70
2013,04,23,16,59,15.70
2013,04,23,17,00,15.70
2013,04,23,17,01,15.80
2013,04,23,17,02,15.80
2013,04,23,17,03,15.80
2013,04,23,17,04,15.90
2013,04,23,17,05,16.00
2013,04,23,17,06,16.10
2013,04,23,17,07,16.20
2013,04,23,17,08,16.30
2013,04,23,17,09,16.40
2013,04,23,17,10,16.50
2013,04,23,17,11,16.70
2013,04,23,17,12,16.80
2013,04,23,17,13,16.90
2013,04,23,17,14,17.00
2013,04,23,17,15,17.10
2013,04,23,17,16,17.20
2013,04,23,17,17,17.30
2013,04,23,17,18,17.40
2013,04,23,17,19,17.40
2013,04,23,17,20,17.50
2013,04,23,17,21,17.60
2013,04,23,17,22,17.60
2013,04,23,17,23,17.60
2013,04,23,17,24,17.70
2013,04,23,17,25,17.70
2013,04,23,17,26,17.70
2013,04,23,17,27,17.70
2013,04,23,17,28,17.70
2013,04,23,17,29,17.60
2013,04,23,17,30,17.60
2013,04,23,17,31,17.60
2013,04,23,17,32,17.60
2013,04,23,17,33,17.60
2013,04,23,17,34,17.60
2013,04,23,17,35,17.60
2013,04,23,17,36,17.60
2013,04,23,17,37,17.60
2013,04,23,17,38,17.60
2013,04,23,17,39,17.70
2013,04,23,17,40,17.70
2013,04,23,17,41,17.70
2013,04,23,17,42,17.60
2013,04,23,17,43,17.50
2013,04,23,17,44,17.30
2013,04,23,17,45,17.20
2013,04,23,17,46,17.20
2013,04,23,17,47,17.20